ASTRA 2C                
1 26853U 01025A   19260.86397942  .00000133  00000-0  00000+0 0  9994
2 26853   2.1941  87.4802 0003193  79.7126 164.0423  1.00271714 66869
SL-12 R/B(2)            
1 26855U 01025C   19259.82966171 -.00000161  00000-0  00000+0 0  9998
2 26855  16.7336 353.9832 4992158 164.0828 163.1696  1.84794866123229